Regional Weather Roundup
Issued by NWS San Angelo, TX

Home | Current Version | Previous Version | Text Only | Print | Product List | Glossary On
Versions: 1 2 3 4 5 6 7 8 9 10 11 12 13 14 15 16 17 18 19 20 21 22 23 24 25 26 27 28 29 30 31 32 33 34 35 36 37 38 39 40 41 42 43 44 45 46 47 48 49 50
000
ASUS44 KSJT 011102
RWRSJT
WEST CENTRAL TEXAS REGIONAL WEATHER ROUNDUP
NATIONAL WEATHER SERVICE SAN ANGELO TX
600 AM CDT SUN MAY 01 2016

NOTE: "FAIR" INDICATES FEW OR NO CLOUDS BELOW 12,000 FEET WITH NO
SIGNIFICANT WEATHER AND/OR OBSTRUCTIONS TO VISIBILITY.

TXZ049-054-064>066-071>073-076>078-098-099-113-114-127-128-139-140-
154-155-168>170-011200
...LOCATIONS ACROSS WEST CENTRAL TEXAS...

CITY           SKY/WX    TMP DP  RH WIND       PRES   REMARKS
SAN ANGELO     MOCLDY    57  52  83 NE8       29.94R
ABILENE        CLEAR     52  45  77 N21G30    29.97S
DYESS AFB      CLEAR     53  44  71 N21G30    29.97R
JUNCTION       CLOUDY    62  58  86 E9        29.88R
SWEETWATER     NOT AVBL
BROWNWOOD      CLEAR     57  50  77 NE7       29.94R
COLEMAN        SUNNY     57  48  73 NE10      29.95R
SONORA         NOT AVBL
OZONA          NOT AVBL
BRADY          NOT AVBL
$$

TEXAS PANHANDLE/OKLAHOMA PANHANDLE

CITY           SKY/WX    TMP DP  RH WIND       PRES   REMARKS
AMARILLO       CLOUDY    40  33  76 N20G26    30.11R WCI  30
BORGER         CLOUDY    42  35  76 N9        30.12F WCI  37
CANADIAN       CLOUDY    44  37  77 N12       30.11R WCI  38
DALHART        CLOUDY    41  33  73 N21       30.14R WCI  32
DUMAS          CLOUDY    39  33  76 N22G29    30.11S WCI  29
GUYMON         NOT AVBL
HEREFORD       CLOUDY    42  36  80 N16G23    30.12F WCI  33
PAMPA          NOT AVBL
PERRYTON       NOT AVBL
$$

SOUTHERN PANHANDLE/SOUTH PLAINS/ROLLING PLAINS

CITY           SKY/WX    TMP DP  RH WIND       PRES   REMARKS
LUBBOCK        MOCLDY    45  33  63 N24G36    30.04S WCI  36
SNYDER           N/A     49  37  61 N21       30.00R
CHILDRESS      CLOUDY    50  33  52 N17       30.09R
SEMINOLE       CLOUDY    48  32  54 NE23G32   30.00S
$$

PERMIAN BASIN

CITY           SKY/WX    TMP DP  RH WIND       PRES   REMARKS
MIDLAND        MOCLDY    55  38  52 NE26G35   29.95R
ODESSA         CLOUDY    55  38  52 NE25G37   29.95R
WINK           CLEAR     55  38  52 NE24G37   29.90R
$$

FAR WEST/SOUTHWEST MOUNTAINS/TRANS PECOS

CITY           SKY/WX    TMP DP  RH WIND       PRES   REMARKS
ALPINE         NOT AVBL
DRYDEN           N/A     67  57  70 E17G24    29.81R
EL PASO        PTCLDY    55  37  50 E13       29.89R
FORT STOCKTON  PTCLDY    59  45  59 E10       29.86R
GUADALUPE PASS NOT AVBL
MARFA          CLEAR     38  24  57 N5        29.88R WCI  34
PECOS          NOT AVBL
$$

DALLAS/FORT WORTH METROPLEX

CITY           SKY/WX    TMP DP  RH WIND       PRES   REMARKS
DFW AIRPORT    PTCLDY    60  48  64 N13       29.93R
FTW MEACHAM    CLEAR     58  50  75 N15       29.93R
DAL-EXECUTIVE  PTCLDY    60  56  86 N7        29.92R
GRAND PRAIRIE  CLEAR     60  52  75 N10       29.94R
ADDISON        CLEAR     59  50  72 MISG      29.95R
MESQUITE       MOSUNNY   60  59  96 N12G17    29.92R
LANCASTER      PTSUNNY   61  58  90 N13       29.92R
$$

NORTH CENTRAL TEXAS

CITY           SKY/WX    TMP DP  RH WIND       PRES   REMARKS
SHRMAN/DENISON SUNNY     51  45  80 N6        29.97R
GAINESVILLE    NOT AVBL
BRIDGEPORT     SUNNY     55  49  80 N9        29.99R
DENTON         CLEAR     55  49  80 N12       29.95R
WAXAHACHIE     SUNNY     59  59 100 N8        29.92R
GRANBURY       MOSUNNY   58  52  79 N5        29.96R
$$

WESTERN NORTH TEXAS

CITY           SKY/WX    TMP DP  RH WIND       PRES   REMARKS
WICHITA FALLS  PTCLDY    50  40  68 N13       30.05R
VERNON         SUNNY     48  35  60 N7        30.09R
BRECKENRIDGE   NOT AVBL
COMANCHE       CLEAR     55  53  95 N6        29.95R
$$

CENTRAL AND SOUTH CENTRAL TEXAS

CITY           SKY/WX    TMP DP  RH WIND       PRES   REMARKS
AUSTIN/BERGSTM CLEAR     64  63  96 N7        29.82S
WACO           CLEAR     60  59  96 N7        29.88R
HILLSBORO      SUNNY     58  58  99 N5        29.90R FOG
TEMPLE         CLEAR     61  60  97 N7        29.87R
KILLEEN-GRAY   NOT AVBL
FORT HOOD      CLEAR     59  58  98 N7        29.85S
GEORGETOWN       N/A    N/A N/A N/A MISG        N/A
LAGO VISTA     FAIR      64  61  91 NE9       29.86S
SAN MARCOS     PTCLDY    64  63  94 NE10      29.82S
NEW BRAUNFELS  CLEAR     67  64  90 NE14      29.79S
RANDOLPH AFB   PTCLDY    67  67 100 NE9       29.80S FOG
SAN ANTONIO    PTCLDY    68  63  84 NE9       29.81R
STINSON        CLEAR     70  65  84 NE9G18    29.78R
PLEASANTON     NOT AVBL
LA GRANGE      NOT AVBL
GIDDINGS       PTSUNNY   68  64  88 NE9       29.84F
$$

EAST TEXAS

CITY           SKY/WX    TMP DP  RH WIND       PRES   REMARKS
PARIS          CLEAR     57  46  67 N9        29.92R
CLARKSVILLE    NOT AVBL
TYLER          CLEAR     63  58  83 N6        29.87S
LONGVIEW       CLEAR     63  60  90 N6        29.84F
PALESTINE      SUNNY     64  61  89 N7        29.87S
NACOGDOCHES    CLEAR     66  63  88 N6        29.83S
$$

TEXAS HILL COUNTRY AND EDWARDS PLATEAU

CITY           SKY/WX    TMP DP  RH WIND       PRES   REMARKS
LLANO          NOT AVBL
HORSESHOE BAY  PTSUNNY   62  60  91 CALM      29.86S
KERRVILLE      CLEAR     60  59  95 CALM      29.86R
FREDERICKSBRG  NOT AVBL
ROCKSPRINGS    NOT AVBL
HONDO          MOCLDY    68  64  87 NE10      29.83R
UVALDE         MOSUNNY   66  64  91 E9        29.81R
DEL RIO        CLOUDY    66  62  87 CALM      29.79R
$$

SOUTHEAST TEXAS

CITY           SKY/WX    TMP DP  RH WIND       PRES   REMARKS
COLLEGE STN    CLEAR     68  64  87 NE12      29.81F
CALDWELL       NOT AVBL
CROCKETT       NOT AVBL
BRENHAM        NOT AVBL
HUNTSVILLE     CLEAR     68  64  87 VRB3      29.82F
CONROE         CLEAR     69  66  90 NE3       29.82R
HOUSTON BUSH   CLOUDY    71  68  90 N8        29.79S
HOUSTON HOBBY  CLOUDY    76  74  93 N12       29.78R
PERLAND        CLOUDY    79  76  90 N5        29.79S FOG
WHARTON        CLOUDY    73  71  93 NE8       29.78S
$$

THE UPPER TEXAS COAST

CITY           SKY/WX    TMP DP  RH WIND       PRES   REMARKS
ORANGE         CLOUDY    73  69  88 NE9       29.81F
PORT ARTHUR    LGT RAIN  73  71  93 SE6       29.77S
GALVESTON      CLOUDY    77  77 100 S8        29.78R FOG
ANGLETON       LGT RAIN  78  76  93 N3        29.76S FOG
BAY CITY       CLOUDY    77  77 100 N3        29.76S FOG
$$

TEXAS COASTAL BEND, RIO GRANDE PLAINS DEEP SOUTH TEXAS

CITY           SKY/WX    TMP DP  RH WIND       PRES   REMARKS
VICTORIA       CLOUDY    74  72  93 NE12      29.75F FOG
BEEVILLE       CLOUDY    68  68 100 E3        29.75R FOG
ROCKPORT       CLOUDY    79  75  87 E12       29.72F
PORT ARANSAS   NOT AVBL
PORT LAVACA    NOT AVBL
CORPUS CHRISTI MOCLDY    79  74  84 E9        29.72S
KINGSVILLE NAS CLOUDY    76  76 100 CALM      29.73R
COTULLA        CLOUDY    75  69  81 E8        29.77R
LAREDO         CLOUDY    76  71  85 E5        29.75R
BROWNSVILLE    CLOUDY    77  77 100 E5        29.71S FOG
PORT ISABEL    CLOUDY    78  77  96 SE8       29.71R FOG
HEBBRONVILLE   NOT AVBL
MCALLEN        CLOUDY    81  75  82 E6        29.72R
WESLACO        NOT AVBL
FALFURRIAS     CLOUDY    76  72  86 CALM      29.74R
EDINBURG       CLOUDY    79  75  87 E5        29.72S FOG
$$




USA.gov is the U.S. government's official web portal to all federal, state and local government web resources and services.